Location: Aldenham
(51.6667°N, 0.3500°W)
Time: 18:01:03
(UTC+00:00)

Cosmos 2082 Rocket - Pass Details

Date: 18 November 2025
Orbit: 834 x 851 km, 71.0° (Epoch: 08 December)

Event Time Altitude Azimuth Distance (km) Brightness Sun altitude
Rises 19:14:08 0° 321° (NW) 3,392 5.9 -28.6°
Reaches altitude 10° 19:17:05 10° 307° (NW) 2,453 5.3 -29.1°
Maximum altitude 19:21:14 22° 259° (WSW) 1,763 4.5 -29.7°
Drops below altitude 10° 19:25:23 10° 210° (SSW) 2,442 4.8 -30.3°
Sets 19:28:20 0° 196° (SSW) 3,373 5.4 -30.8°
